This is the latest recevied weather packets stored in our database for station/object EA1IDU-11. If no packets are shown the sender has not sent any weather packets the latest 10 day(s).
| Time | Temp. | Humidity | Pressure | Rain* | Wind** | Luminosity | Snow |
|---|---|---|---|---|---|---|---|
| 1777832873 | 17.22° C | 49% | 1019.8 hPa | - | - | - | - |
| 1777831973 | 17.78° C | 48% | 1019.6 hPa | - | - | - | - |
| 1777831073 | 19.44° C | 47% | 1019.6 hPa | - | - | - | - |
| 1777830173 | 19.44° C | 47% | 1019.6 hPa | - | - | - | - |
| 1777829273 | 19.44° C | 47% | 1019.7 hPa | - | - | - | - |
| 1777828373 | 19.44° C | 47% | 1019.5 hPa | - | - | - | - |
| 1777827472 | 20° C | 48% | 1019.5 hPa | - | - | - | - |
| 1777826571 | 20° C | 46% | 1019.7 hPa | - | - | - | - |
| 1777825671 | 18.89° C | 47% | 1019.9 hPa | - | - | - | - |
| 1777824771 | 17.22° C | 47% | 1020 hPa | - | - | - | - |
| 1777823871 | 17.22° C | 46% | 1019.9 hPa | - | - | - | - |
| 1777822971 | 17.78° C | 45% | 1020 hPa | - | - | - | - |
| 1777822071 | 20.56° C | 43% | 1020.4 hPa | - | - | - | - |
| 1777821171 | 21.67° C | 43% | 1019.7 hPa | - | - | - | - |
| 1777820271 | 22.78° C | 43% | 1019.9 hPa | - | - | - | - |
| 1777819371 | 22.78° C | 43% | 1020 hPa | - | - | - | - |
| 1777818470 | 22.78° C | 43% | 1020.1 hPa | - | - | - | - |
| 1777817570 | 22.78° C | 44% | 1020.3 hPa | - | - | - | - |
| 1777816670 | 23.33° C | 44% | 1020.4 hPa | - | - | - | - |
| 1777815770 | 24.44° C | 45% | 1020.5 hPa | - | - | - | - |
| 1777814870 | 25.56° C | 46% | 1020.5 hPa | - | - | - | - |
| 1777813970 | 25° C | 48% | 1020.5 hPa | - | - | - | - |
| 1777813070 | 25° C | 49% | 1020.7 hPa | - | - | - | - |
| 1777812170 | 25° C | 51% | 1020.8 hPa | - | - | - | - |
| 1777811270 | 24.44° C | 52% | 1021.1 hPa | - | - | - | - |
* Rain since midnight (hover to see other rain measurements)
** Current wind speed in m/s (hover to see current wind gust speed)